Year,Month,Day,Hour,Minute,Value (Times are PST for temperature in C)
2020,01,12,00,00,3.00
2020,01,12,00,01,3.00
2020,01,12,00,02,3.00
2020,01,12,00,03,3.00
2020,01,12,00,04,3.10
2020,01,12,00,05,3.00
2020,01,12,00,06,3.10
2020,01,12,00,07,3.10
2020,01,12,00,08,3.10
2020,01,12,00,09,3.10
2020,01,12,00,10,3.10
2020,01,12,00,11,3.10
2020,01,12,00,12,3.20
2020,01,12,00,13,3.20
2020,01,12,00,14,3.20
2020,01,12,00,15,3.20
2020,01,12,00,16,3.20
2020,01,12,00,17,3.20
2020,01,12,00,18,3.30
2020,01,12,00,19,3.30
2020,01,12,00,20,3.30
2020,01,12,00,21,3.30
2020,01,12,00,22,3.30
2020,01,12,00,23,3.30
2020,01,12,00,24,3.30
2020,01,12,00,25,3.30
2020,01,12,00,26,3.30
2020,01,12,00,27,3.30
2020,01,12,00,28,3.30
2020,01,12,00,29,3.30
2020,01,12,00,30,3.30
2020,01,12,00,31,3.30
2020,01,12,00,32,3.20
2020,01,12,00,33,3.20
2020,01,12,00,34,3.20
2020,01,12,00,35,3.20
2020,01,12,00,36,3.20
2020,01,12,00,37,3.20
2020,01,12,00,38,3.20
2020,01,12,00,39,3.20
2020,01,12,00,40,3.20
2020,01,12,00,41,3.20
2020,01,12,00,42,3.30
2020,01,12,00,43,3.30
2020,01,12,00,44,3.30
2020,01,12,00,45,3.30
2020,01,12,00,46,3.30
2020,01,12,00,47,3.30
2020,01,12,00,48,3.30
2020,01,12,00,49,3.30
2020,01,12,00,50,3.30
2020,01,12,00,51,3.30
2020,01,12,00,52,3.30
2020,01,12,00,53,3.40
2020,01,12,00,54,3.40
2020,01,12,00,55,3.40
2020,01,12,00,56,3.40
2020,01,12,00,57,3.40
2020,01,12,00,58,3.40
2020,01,12,00,59,3.40
2020,01,12,01,00,3.40
2020,01,12,01,01,3.50
2020,01,12,01,02,3.50
2020,01,12,01,03,3.50
2020,01,12,01,04,3.50
2020,01,12,01,05,3.50
2020,01,12,01,06,3.50
2020,01,12,01,07,3.50
2020,01,12,01,08,3.50
2020,01,12,01,09,3.50
2020,01,12,01,10,3.50
2020,01,12,01,11,3.50
2020,01,12,01,12,3.50
2020,01,12,01,13,3.50
2020,01,12,01,14,3.50
2020,01,12,01,15,3.50
2020,01,12,01,16,3.50
2020,01,12,01,17,3.50
2020,01,12,01,18,3.50
2020,01,12,01,19,3.50
2020,01,12,01,20,3.50
2020,01,12,01,21,3.50
2020,01,12,01,22,3.40
2020,01,12,01,23,3.40
2020,01,12,01,24,3.40
2020,01,12,01,25,3.40
2020,01,12,01,26,3.40
2020,01,12,01,27,3.30
2020,01,12,01,28,3.30
2020,01,12,01,29,3.30
2020,01,12,01,30,3.30
2020,01,12,01,31,3.30
2020,01,12,01,32,3.30
2020,01,12,01,33,3.30
2020,01,12,01,34,3.20
2020,01,12,01,35,3.20
2020,01,12,01,36,3.20
2020,01,12,01,37,3.20
2020,01,12,01,38,3.20
2020,01,12,01,39,3.20
2020,01,12,01,40,3.20
2020,01,12,01,41,3.20
2020,01,12,01,42,3.20
2020,01,12,01,43,3.20
2020,01,12,01,44,3.20
2020,01,12,01,45,3.20
2020,01,12,01,46,3.20
2020,01,12,01,47,3.20
2020,01,12,01,48,3.20
2020,01,12,01,49,3.30
2020,01,12,01,50,3.30
2020,01,12,01,51,3.30
2020,01,12,01,52,3.30
2020,01,12,01,53,3.30
2020,01,12,01,54,3.40
2020,01,12,01,55,3.40
2020,01,12,01,56,3.50
2020,01,12,01,57,3.60
2020,01,12,01,58,3.60
2020,01,12,01,59,3.60
2020,01,12,02,00,3.70
2020,01,12,02,01,3.70
2020,01,12,02,02,3.70
2020,01,12,02,03,3.70
2020,01,12,02,04,3.70
2020,01,12,02,05,3.70
2020,01,12,02,06,3.70
2020,01,12,02,07,3.70
2020,01,12,02,08,3.70
2020,01,12,02,09,3.70
2020,01,12,02,10,3.70
2020,01,12,02,11,3.70
2020,01,12,02,12,3.60
2020,01,12,02,13,3.60
2020,01,12,02,14,3.60
2020,01,12,02,15,3.60
2020,01,12,02,16,3.60
2020,01,12,02,17,3.60
2020,01,12,02,18,3.60
2020,01,12,02,19,3.60
2020,01,12,02,20,3.60
2020,01,12,02,21,3.50
2020,01,12,02,22,3.50
2020,01,12,02,23,3.50
2020,01,12,02,24,3.40
2020,01,12,02,25,3.40
2020,01,12,02,26,3.40
2020,01,12,02,27,3.40
2020,01,12,02,28,3.40
2020,01,12,02,29,3.40
2020,01,12,02,30,3.40
2020,01,12,02,31,3.50
2020,01,12,02,32,3.40
2020,01,12,02,33,3.40
2020,01,12,02,34,3.40
2020,01,12,02,35,3.40
2020,01,12,02,36,3.40
2020,01,12,02,37,3.40
2020,01,12,02,38,3.40
2020,01,12,02,39,3.40
2020,01,12,02,40,3.50
2020,01,12,02,41,3.50
2020,01,12,02,42,3.50
2020,01,12,02,43,3.50
2020,01,12,02,44,3.50
2020,01,12,02,45,3.50
2020,01,12,02,46,3.50
2020,01,12,02,47,3.50
2020,01,12,02,48,3.50
2020,01,12,02,49,3.50
2020,01,12,02,50,3.60
2020,01,12,02,51,3.60
2020,01,12,02,52,3.60
2020,01,12,02,53,3.60
2020,01,12,02,54,3.60
2020,01,12,02,55,3.60
2020,01,12,02,56,3.70
2020,01,12,02,57,3.70
2020,01,12,02,58,3.70
2020,01,12,02,59,3.70
2020,01,12,03,00,3.70
2020,01,12,03,01,3.70
2020,01,12,03,02,3.70
2020,01,12,03,03,3.70
2020,01,12,03,04,3.70
2020,01,12,03,05,3.70
2020,01,12,03,06,3.70
2020,01,12,03,07,3.70
2020,01,12,03,08,3.70
2020,01,12,03,09,3.70
2020,01,12,03,10,3.70
2020,01,12,03,11,3.70
2020,01,12,03,12,3.70
2020,01,12,03,13,3.70
2020,01,12,03,14,3.70
2020,01,12,03,15,3.70
2020,01,12,03,16,3.70
2020,01,12,03,17,3.70
2020,01,12,03,18,3.70
2020,01,12,03,19,3.70
2020,01,12,03,20,3.70
2020,01,12,03,21,3.70
2020,01,12,03,22,3.70
2020,01,12,03,23,3.70
2020,01,12,03,24,3.70
2020,01,12,03,25,3.70
2020,01,12,03,26,3.70
2020,01,12,03,27,3.70
2020,01,12,03,28,3.70
2020,01,12,03,29,3.70
2020,01,12,03,30,3.60
2020,01,12,03,31,3.60
2020,01,12,03,32,3.60
2020,01,12,03,33,3.60
2020,01,12,03,34,3.60
2020,01,12,03,35,3.60
2020,01,12,03,36,3.60
2020,01,12,03,37,3.60
2020,01,12,03,38,3.60
2020,01,12,03,39,3.60
2020,01,12,03,40,3.60
2020,01,12,03,41,3.60
2020,01,12,03,42,3.60
2020,01,12,03,43,3.60
2020,01,12,03,44,3.60
2020,01,12,03,45,3.60
2020,01,12,03,46,3.50
2020,01,12,03,47,3.50
2020,01,12,03,48,3.50
2020,01,12,03,49,3.50
2020,01,12,03,50,3.50
2020,01,12,03,51,3.50
2020,01,12,03,52,3.50
2020,01,12,03,53,3.50
2020,01,12,03,54,3.50
2020,01,12,03,55,3.50
2020,01,12,03,56,3.50
2020,01,12,03,57,3.50
2020,01,12,03,58,3.50
2020,01,12,03,59,3.50
2020,01,12,04,00,3.50
2020,01,12,04,01,3.50
2020,01,12,04,02,3.50
2020,01,12,04,03,3.40
2020,01,12,04,04,3.40
2020,01,12,04,05,3.40
2020,01,12,04,06,3.30
2020,01,12,04,07,3.30
2020,01,12,04,08,3.30
2020,01,12,04,09,3.20
2020,01,12,04,10,3.20
2020,01,12,04,11,3.20
2020,01,12,04,12,3.20
2020,01,12,04,13,3.20
2020,01,12,04,14,3.20
2020,01,12,04,15,3.20
2020,01,12,04,16,3.20
2020,01,12,04,17,3.20
2020,01,12,04,18,3.20
2020,01,12,04,19,3.20
2020,01,12,04,20,3.20
2020,01,12,04,21,3.20
2020,01,12,04,22,3.20
2020,01,12,04,23,3.20
2020,01,12,04,24,3.20
2020,01,12,04,25,3.20
2020,01,12,04,26,3.20
2020,01,12,04,27,3.20
2020,01,12,04,28,3.20
2020,01,12,04,29,3.20
2020,01,12,04,30,3.20
2020,01,12,04,31,3.20
2020,01,12,04,32,3.20
2020,01,12,04,33,3.20
2020,01,12,04,34,3.20
2020,01,12,04,35,3.20
2020,01,12,04,36,3.20
2020,01,12,04,37,3.20
2020,01,12,04,38,3.20
2020,01,12,04,39,3.10
2020,01,12,04,40,3.00
2020,01,12,04,41,3.00
2020,01,12,04,42,2.90
2020,01,12,04,43,2.80
2020,01,12,04,44,2.70
2020,01,12,04,45,2.60
2020,01,12,04,46,2.60
2020,01,12,04,47,2.50
2020,01,12,04,48,2.40
2020,01,12,04,49,2.30
2020,01,12,04,50,2.30
2020,01,12,04,51,2.30
2020,01,12,04,52,2.20
2020,01,12,04,53,2.20
2020,01,12,04,54,2.20
2020,01,12,04,55,2.20
2020,01,12,04,56,2.20
2020,01,12,04,57,2.10
2020,01,12,04,58,2.10
2020,01,12,04,59,2.10
2020,01,12,05,00,2.10
2020,01,12,05,01,2.00
2020,01,12,05,02,1.90
2020,01,12,05,03,1.90
2020,01,12,05,04,1.80
2020,01,12,05,05,1.80
2020,01,12,05,06,1.70
2020,01,12,05,07,1.70
2020,01,12,05,08,1.70
2020,01,12,05,09,1.70
2020,01,12,05,10,1.60
2020,01,12,05,11,1.60
2020,01,12,05,12,1.60
2020,01,12,05,13,1.60
2020,01,12,05,14,1.60
2020,01,12,05,15,1.60
2020,01,12,05,16,1.60
2020,01,12,05,17,1.60
2020,01,12,05,18,1.60
2020,01,12,05,19,1.60
2020,01,12,05,20,1.60
2020,01,12,05,21,1.60
2020,01,12,05,22,1.60
2020,01,12,05,23,1.60
2020,01,12,05,24,1.60
2020,01,12,05,25,1.60
2020,01,12,05,26,1.60
2020,01,12,05,27,1.50
2020,01,12,05,28,1.50
2020,01,12,05,29,1.50
2020,01,12,05,30,1.50
2020,01,12,05,31,1.50
2020,01,12,05,32,1.50
2020,01,12,05,33,1.50
2020,01,12,05,34,1.50
2020,01,12,05,35,1.50
2020,01,12,05,36,1.50
2020,01,12,05,37,1.50
2020,01,12,05,38,1.50
2020,01,12,05,39,1.50
2020,01,12,05,40,1.50
2020,01,12,05,41,1.50
2020,01,12,05,42,1.50
2020,01,12,05,43,1.50
2020,01,12,05,44,1.50
2020,01,12,05,45,1.50
2020,01,12,05,46,1.40
2020,01,12,05,47,1.40
2020,01,12,05,48,1.40
2020,01,12,05,49,1.40
2020,01,12,05,50,1.40
2020,01,12,05,51,1.40
2020,01,12,05,52,1.40
2020,01,12,05,53,1.40
2020,01,12,05,54,1.40
2020,01,12,05,55,1.40
2020,01,12,05,56,1.40
2020,01,12,05,57,1.40
2020,01,12,05,58,1.40
2020,01,12,05,59,1.40
2020,01,12,06,00,1.40
2020,01,12,06,01,1.40
2020,01,12,06,02,1.40
2020,01,12,06,03,1.40
2020,01,12,06,04,1.40
2020,01,12,06,05,1.40
2020,01,12,06,06,1.40
2020,01,12,06,07,1.40
2020,01,12,06,08,1.40
2020,01,12,06,09,1.40
2020,01,12,06,10,1.40
2020,01,12,06,11,1.40
2020,01,12,06,12,1.40
2020,01,12,06,13,1.40
2020,01,12,06,14,1.40
2020,01,12,06,15,1.40
2020,01,12,06,16,1.40
2020,01,12,06,17,1.40
2020,01,12,06,18,1.40
2020,01,12,06,19,1.40
2020,01,12,06,20,1.40
2020,01,12,06,21,1.40
2020,01,12,06,22,1.40
2020,01,12,06,23,1.40
2020,01,12,06,24,1.40
2020,01,12,06,25,1.40
2020,01,12,06,26,1.40
2020,01,12,06,27,1.40
2020,01,12,06,28,1.50
2020,01,12,06,29,1.40
2020,01,12,06,30,1.40
2020,01,12,06,31,1.40
2020,01,12,06,32,1.40
2020,01,12,06,33,1.40
2020,01,12,06,34,1.40
2020,01,12,06,35,1.40
2020,01,12,06,36,1.40
2020,01,12,06,37,1.40
2020,01,12,06,38,1.40
2020,01,12,06,39,1.40
2020,01,12,06,40,1.40
2020,01,12,06,41,1.40
2020,01,12,06,42,1.40
2020,01,12,06,43,1.40
2020,01,12,06,44,1.40
2020,01,12,06,45,1.40
2020,01,12,06,46,1.40
2020,01,12,06,47,1.40
2020,01,12,06,48,1.40
2020,01,12,06,49,1.40
2020,01,12,06,50,1.40
2020,01,12,06,51,1.30
2020,01,12,06,52,1.30
2020,01,12,06,53,1.30
2020,01,12,06,54,1.30
2020,01,12,06,55,1.30
2020,01,12,06,56,1.30
2020,01,12,06,57,1.30
2020,01,12,06,58,1.30
2020,01,12,06,59,1.30
2020,01,12,07,00,1.30
2020,01,12,07,01,1.30
2020,01,12,07,02,1.30
2020,01,12,07,03,1.30
2020,01,12,07,04,1.30
2020,01,12,07,05,1.30
2020,01,12,07,06,1.30
2020,01,12,07,07,1.30
2020,01,12,07,08,1.30
2020,01,12,07,09,1.30
2020,01,12,07,10,1.30
2020,01,12,07,11,1.30
2020,01,12,07,12,1.30
2020,01,12,07,13,1.30
2020,01,12,07,14,1.30
2020,01,12,07,15,1.30
2020,01,12,07,16,1.30
2020,01,12,07,17,1.30
2020,01,12,07,18,1.30
2020,01,12,07,19,1.30
2020,01,12,07,20,1.30
2020,01,12,07,21,1.30
2020,01,12,07,22,1.30
2020,01,12,07,23,1.30
2020,01,12,07,24,1.30
2020,01,12,07,25,1.30
2020,01,12,07,26,1.30
2020,01,12,07,27,1.30
2020,01,12,07,28,1.30
2020,01,12,07,29,1.30
2020,01,12,07,30,1.30
2020,01,12,07,31,1.30
2020,01,12,07,32,1.30
2020,01,12,07,33,1.30
2020,01,12,07,34,1.30
2020,01,12,07,35,1.30
2020,01,12,07,36,1.30
2020,01,12,07,37,1.30
2020,01,12,07,38,1.30
2020,01,12,07,39,1.30
2020,01,12,07,40,1.30
2020,01,12,07,41,1.30
2020,01,12,07,42,1.30
2020,01,12,07,43,1.30
2020,01,12,07,44,1.30
2020,01,12,07,45,1.30
2020,01,12,07,46,1.30
2020,01,12,07,47,1.30
2020,01,12,07,48,1.30
2020,01,12,07,49,1.30
2020,01,12,07,50,1.30
2020,01,12,07,51,1.30
2020,01,12,07,52,1.30
2020,01,12,07,53,1.30
2020,01,12,07,54,1.30
2020,01,12,07,55,1.30
2020,01,12,07,56,1.30
2020,01,12,07,57,1.30
2020,01,12,07,58,1.30
2020,01,12,07,59,1.30
2020,01,12,08,00,1.30
2020,01,12,08,01,1.30
2020,01,12,08,02,1.30
2020,01,12,08,03,1.30
2020,01,12,08,04,1.30
2020,01,12,08,05,1.30
2020,01,12,08,06,1.30
2020,01,12,08,07,1.30
2020,01,12,08,08,1.30
2020,01,12,08,09,1.30
2020,01,12,08,10,1.30
2020,01,12,08,11,1.30
2020,01,12,08,12,1.30
2020,01,12,08,13,1.30
2020,01,12,08,14,1.30
2020,01,12,08,15,1.30
2020,01,12,08,16,1.30
2020,01,12,08,17,1.30
2020,01,12,08,18,1.30
2020,01,12,08,19,1.30
2020,01,12,08,20,1.30
2020,01,12,08,21,1.30
2020,01,12,08,22,1.30
2020,01,12,08,23,1.30
2020,01,12,08,24,1.30
2020,01,12,08,25,1.30
2020,01,12,08,26,1.30
2020,01,12,08,27,1.30
2020,01,12,08,28,1.30
2020,01,12,08,29,1.30
2020,01,12,08,30,1.30
2020,01,12,08,31,1.30
2020,01,12,08,32,1.30
2020,01,12,08,33,1.30
2020,01,12,08,34,1.30
2020,01,12,08,35,1.30
2020,01,12,08,36,1.30
2020,01,12,08,37,1.30
2020,01,12,08,38,1.30
2020,01,12,08,39,1.30
2020,01,12,08,40,1.30
2020,01,12,08,41,1.30
2020,01,12,08,42,1.30
2020,01,12,08,43,1.30
2020,01,12,08,44,1.20
2020,01,12,08,45,1.30
2020,01,12,08,46,1.20
2020,01,12,08,47,1.30
2020,01,12,08,48,1.20
2020,01,12,08,49,1.20
2020,01,12,08,50,1.20
2020,01,12,08,51,1.20
2020,01,12,08,52,1.20
2020,01,12,08,53,1.20
2020,01,12,08,54,1.20
2020,01,12,08,55,1.20
2020,01,12,08,56,1.20
2020,01,12,08,57,1.20
2020,01,12,08,58,1.20
2020,01,12,08,59,1.20
2020,01,12,09,00,1.20
2020,01,12,09,01,1.30
2020,01,12,09,02,1.30
2020,01,12,09,03,1.30
2020,01,12,09,04,1.30
2020,01,12,09,05,1.30
2020,01,12,09,06,1.30
2020,01,12,09,07,1.30
2020,01,12,09,08,1.30
2020,01,12,09,09,1.30
2020,01,12,09,10,1.30
2020,01,12,09,11,1.30
2020,01,12,09,12,1.20
2020,01,12,09,13,1.30
2020,01,12,09,14,1.30
2020,01,12,09,15,1.30
2020,01,12,09,16,1.30
2020,01,12,09,17,1.30
2020,01,12,09,18,1.30
2020,01,12,09,19,1.30
2020,01,12,09,20,1.30
2020,01,12,09,21,1.30
2020,01,12,09,22,1.30
2020,01,12,09,23,1.30
2020,01,12,09,24,1.30
2020,01,12,09,25,1.30
2020,01,12,09,26,1.30
2020,01,12,09,27,1.30
2020,01,12,09,28,1.30
2020,01,12,09,29,1.30
2020,01,12,09,30,1.40
2020,01,12,09,31,1.40
2020,01,12,09,32,1.40
2020,01,12,09,33,1.40
2020,01,12,09,34,1.50
2020,01,12,09,35,1.50
2020,01,12,09,36,1.50
2020,01,12,09,37,1.50
2020,01,12,09,38,1.50
2020,01,12,09,39,1.60
2020,01,12,09,40,1.60
2020,01,12,09,41,1.60
2020,01,12,09,42,1.60
2020,01,12,09,43,1.60
2020,01,12,09,44,1.60
2020,01,12,09,45,1.60
2020,01,12,09,46,1.60
2020,01,12,09,47,1.60
2020,01,12,09,48,1.70
2020,01,12,09,49,1.70
2020,01,12,09,50,1.70
2020,01,12,09,51,1.70
2020,01,12,09,52,1.70
2020,01,12,09,53,1.70
2020,01,12,09,54,1.70
2020,01,12,09,55,1.70
2020,01,12,09,56,1.70
2020,01,12,09,57,1.70
2020,01,12,09,58,1.70
2020,01,12,09,59,1.70
2020,01,12,10,00,1.80
2020,01,12,10,01,1.80
2020,01,12,10,02,1.80
2020,01,12,10,03,1.80
2020,01,12,10,04,1.80
2020,01,12,10,05,1.80
2020,01,12,10,06,1.80
2020,01,12,10,07,1.80
2020,01,12,10,08,1.80
2020,01,12,10,09,1.80
2020,01,12,10,10,1.80
2020,01,12,10,11,1.80
2020,01,12,10,12,1.80
2020,01,12,10,13,1.90
2020,01,12,10,14,1.90
2020,01,12,10,15,1.90
2020,01,12,10,16,1.90
2020,01,12,10,17,2.00
2020,01,12,10,18,2.00
2020,01,12,10,19,2.00
2020,01,12,10,20,2.10
2020,01,12,10,21,2.10
2020,01,12,10,22,2.10
2020,01,12,10,23,2.20
2020,01,12,10,24,2.20
2020,01,12,10,25,2.20
2020,01,12,10,26,2.20
2020,01,12,10,27,2.20
2020,01,12,10,28,2.30
2020,01,12,10,29,2.30
2020,01,12,10,30,2.30
2020,01,12,10,31,2.30
2020,01,12,10,32,2.30
2020,01,12,10,33,2.40
2020,01,12,10,34,2.40
2020,01,12,10,35,2.40
2020,01,12,10,36,2.40
2020,01,12,10,37,2.40
2020,01,12,10,38,2.40
2020,01,12,10,39,2.40
2020,01,12,10,40,2.40
2020,01,12,10,41,2.40
2020,01,12,10,42,2.40
2020,01,12,10,43,2.40
2020,01,12,10,44,2.40
2020,01,12,10,45,2.40
2020,01,12,10,46,2.40
2020,01,12,10,47,2.40
2020,01,12,10,48,2.40
2020,01,12,10,49,2.40
2020,01,12,10,50,2.40
2020,01,12,10,51,2.40
2020,01,12,10,52,2.40
2020,01,12,10,53,2.40
2020,01,12,10,54,2.40
2020,01,12,10,55,2.40
2020,01,12,10,56,2.40
2020,01,12,10,57,2.40
2020,01,12,10,58,2.40
2020,01,12,10,59,2.50
2020,01,12,11,00,2.50
2020,01,12,11,01,2.50
2020,01,12,11,02,2.60
2020,01,12,11,03,2.60
2020,01,12,11,04,2.60
2020,01,12,11,05,2.60
2020,01,12,11,06,2.70
2020,01,12,11,07,2.70
2020,01,12,11,08,2.70
2020,01,12,11,09,2.70
2020,01,12,11,10,2.70
2020,01,12,11,11,2.70
2020,01,12,11,12,2.70
2020,01,12,11,13,2.70
2020,01,12,11,14,2.70
2020,01,12,11,15,2.70
2020,01,12,11,16,2.70
2020,01,12,11,17,2.70
2020,01,12,11,18,2.70
2020,01,12,11,19,2.70
2020,01,12,11,20,2.80
2020,01,12,11,21,2.80
2020,01,12,11,22,2.80
2020,01,12,11,23,2.80
2020,01,12,11,24,2.80
2020,01,12,11,25,2.80
2020,01,12,11,26,2.80
2020,01,12,11,27,2.90
2020,01,12,11,28,2.90
2020,01,12,11,29,2.90
2020,01,12,11,30,2.90
2020,01,12,11,31,2.90
2020,01,12,11,32,2.90
2020,01,12,11,33,2.90
2020,01,12,11,34,2.90
2020,01,12,11,35,2.90
2020,01,12,11,36,2.90
2020,01,12,11,37,2.90
2020,01,12,11,38,2.90
2020,01,12,11,39,2.90
2020,01,12,11,40,2.80
2020,01,12,11,41,2.80
2020,01,12,11,42,2.80
2020,01,12,11,43,2.80
2020,01,12,11,44,2.80
2020,01,12,11,45,2.80
2020,01,12,11,46,2.80
2020,01,12,11,47,2.80
2020,01,12,11,48,2.80
2020,01,12,11,49,2.80
2020,01,12,11,50,2.80
2020,01,12,11,51,2.80
2020,01,12,11,52,2.70
2020,01,12,11,53,2.70
2020,01,12,11,54,2.70
2020,01,12,11,55,2.70
2020,01,12,11,56,2.70
2020,01,12,11,57,2.70
2020,01,12,11,58,2.70
2020,01,12,11,59,2.60
2020,01,12,12,00,2.60
2020,01,12,12,01,2.60
2020,01,12,12,02,2.60
2020,01,12,12,03,2.60
2020,01,12,12,04,2.60
2020,01,12,12,05,2.60
2020,01,12,12,06,2.50
2020,01,12,12,07,2.50
2020,01,12,12,08,2.50
2020,01,12,12,09,2.50
2020,01,12,12,10,2.50
2020,01,12,12,11,2.50
2020,01,12,12,12,2.50
2020,01,12,12,13,2.50
2020,01,12,12,14,2.50
2020,01,12,12,15,2.50
2020,01,12,12,16,2.50
2020,01,12,12,17,2.50
2020,01,12,12,18,2.50
2020,01,12,12,19,2.50
2020,01,12,12,20,2.50
2020,01,12,12,21,2.50
2020,01,12,12,22,2.50
2020,01,12,12,23,2.50
2020,01,12,12,24,2.50
2020,01,12,12,25,2.50
2020,01,12,12,26,2.50
2020,01,12,12,27,2.50
2020,01,12,12,28,2.50
2020,01,12,12,29,2.50
2020,01,12,12,30,2.50
2020,01,12,12,31,2.40
2020,01,12,12,32,2.50
2020,01,12,12,33,2.50
2020,01,12,12,34,2.50
2020,01,12,12,35,2.50
2020,01,12,12,36,2.50
2020,01,12,12,37,2.60
2020,01,12,12,38,2.60
2020,01,12,12,39,2.70
2020,01,12,12,40,2.70
2020,01,12,12,41,2.70
2020,01,12,12,42,2.70
2020,01,12,12,43,2.80
2020,01,12,12,44,2.80
2020,01,12,12,45,2.80
2020,01,12,12,46,2.70
2020,01,12,12,47,2.70
2020,01,12,12,48,2.70
2020,01,12,12,49,2.60
2020,01,12,12,50,2.60
2020,01,12,12,51,2.60
2020,01,12,12,52,2.60
2020,01,12,12,53,2.50
2020,01,12,12,54,2.50
2020,01,12,12,55,2.50
2020,01,12,12,56,2.50
2020,01,12,12,57,2.50
2020,01,12,12,58,2.50
2020,01,12,14,45,0.20
2020,01,12,14,46,0.20
2020,01,12,14,47,0.20
2020,01,12,14,48,0.20
2020,01,12,14,49,0.20
2020,01,12,14,50,0.20
2020,01,12,14,51,0.20
2020,01,12,14,52,0.20
2020,01,12,14,53,0.20
2020,01,12,14,54,0.20
2020,01,12,14,55,0.20
2020,01,12,14,56,0.10
2020,01,12,14,57,0.00
2020,01,12,14,58,0.00
2020,01,12,14,59,0.00
2020,01,12,15,00,-0.10
2020,01,12,15,01,-0.10
2020,01,12,15,02,-0.10
2020,01,12,15,03,-0.10
2020,01,12,15,04,-0.10
2020,01,12,15,05,-0.10
2020,01,12,15,06,-0.10
2020,01,12,15,07,-0.20
2020,01,12,15,08,-0.20
2020,01,12,15,09,-0.20
2020,01,12,15,10,-0.20
2020,01,12,15,11,-0.20
2020,01,12,15,12,-0.30
2020,01,12,15,13,-0.30
2020,01,12,15,14,-0.30
2020,01,12,15,15,-0.30
2020,01,12,15,16,-0.30
2020,01,12,15,17,-0.30
2020,01,12,15,18,-0.30
2020,01,12,15,19,-0.30
2020,01,12,15,20,-0.30
2020,01,12,15,21,-0.30
2020,01,12,15,22,-0.30
2020,01,12,15,23,-0.30
2020,01,12,15,24,-0.40
2020,01,12,15,25,-0.40
2020,01,12,15,26,-0.40
2020,01,12,15,27,-0.40
2020,01,12,15,28,-0.50
2020,01,12,15,29,-0.50
2020,01,12,15,30,-0.60
2020,01,12,15,31,-0.60
2020,01,12,15,32,-0.60
2020,01,12,15,33,-0.70
2020,01,12,15,34,-0.70
2020,01,12,15,35,-0.70
2020,01,12,15,36,-0.70
2020,01,12,15,37,-0.70
2020,01,12,15,38,-0.70
2020,01,12,15,39,-0.70
2020,01,12,15,40,-0.70
2020,01,12,15,41,-0.70
2020,01,12,15,42,-0.80
2020,01,12,15,43,-0.80
2020,01,12,15,44,-0.80
2020,01,12,15,45,-0.80
2020,01,12,15,46,-0.80
2020,01,12,15,47,-0.80
2020,01,12,15,48,-0.80
2020,01,12,15,49,-0.80
2020,01,12,15,50,-0.80
2020,01,12,15,51,-0.80
2020,01,12,15,52,-0.90
2020,01,12,15,53,-0.90
2020,01,12,15,54,-0.90
2020,01,12,15,55,-0.90
2020,01,12,15,56,-0.90
2020,01,12,15,57,-0.90
2020,01,12,15,58,-1.00
2020,01,12,15,59,-1.00
2020,01,12,16,00,-1.00
2020,01,12,16,01,-1.10
2020,01,12,16,02,-1.10
2020,01,12,16,03,-1.10
2020,01,12,16,04,-1.10
2020,01,12,16,05,-1.10
2020,01,12,16,06,-1.20
2020,01,12,16,07,-1.20
2020,01,12,16,08,-1.20
2020,01,12,16,09,-1.20
2020,01,12,16,10,-1.20
2020,01,12,16,11,-1.20
2020,01,12,16,12,-1.30
2020,01,12,16,13,-1.30
2020,01,12,16,14,-1.30
2020,01,12,16,15,-1.30
2020,01,12,16,16,-1.30
2020,01,12,16,17,-1.30
2020,01,12,16,18,-1.30
2020,01,12,16,19,-1.30
2020,01,12,16,20,-1.40
2020,01,12,16,21,-1.40
2020,01,12,16,22,-1.40
2020,01,12,16,23,-1.40
2020,01,12,16,24,-1.40
2020,01,12,16,25,-1.40
2020,01,12,16,26,-1.40
2020,01,12,16,27,-1.50
2020,01,12,16,28,-1.50
2020,01,12,16,29,-1.50
2020,01,12,16,30,-1.50
2020,01,12,16,31,-1.50
2020,01,12,16,32,-1.50
2020,01,12,16,33,-1.50
2020,01,12,16,34,-1.60
2020,01,12,16,35,-1.60
2020,01,12,16,36,-1.60
2020,01,12,16,37,-1.60
2020,01,12,16,38,-1.60
2020,01,12,16,39,-1.60
2020,01,12,16,40,-1.60
2020,01,12,16,41,-1.70
2020,01,12,16,42,-1.70
2020,01,12,16,43,-1.70
2020,01,12,16,44,-1.70
2020,01,12,16,45,-1.70
2020,01,12,16,46,-1.70
2020,01,12,16,47,-1.70
2020,01,12,16,48,-1.70
2020,01,12,16,49,-1.70
2020,01,12,16,50,-1.70
2020,01,12,16,51,-1.70
2020,01,12,16,52,-1.70
2020,01,12,16,53,-1.70
2020,01,12,16,54,-1.70
2020,01,12,16,55,-1.70
2020,01,12,16,56,-1.70
2020,01,12,16,57,-1.80
2020,01,12,16,58,-1.70
2020,01,12,16,59,-1.70
2020,01,12,17,00,-1.70
2020,01,12,17,01,-1.70
2020,01,12,17,02,-1.70
2020,01,12,17,03,-1.70
2020,01,12,17,04,-1.70
2020,01,12,17,05,-1.80
2020,01,12,17,06,-1.80
2020,01,12,17,07,-1.80
2020,01,12,17,08,-1.80
2020,01,12,17,09,-1.80
2020,01,12,17,10,-1.80
2020,01,12,17,11,-1.70
2020,01,12,17,12,-1.70
2020,01,12,17,13,-1.70
2020,01,12,17,14,-1.70
2020,01,12,17,15,-1.70
2020,01,12,17,16,-1.70
2020,01,12,17,17,-1.70
2020,01,12,17,18,-1.70
2020,01,12,17,19,-1.70
2020,01,12,17,20,-1.80
2020,01,12,17,21,-1.80
2020,01,12,17,22,-1.80
2020,01,12,17,23,-1.80
2020,01,12,17,24,-1.80
2020,01,12,17,25,-1.80
2020,01,12,17,26,-1.80
2020,01,12,17,27,-1.80
2020,01,12,17,28,-1.80
2020,01,12,17,29,-1.80
2020,01,12,17,30,-1.90
2020,01,12,17,31,-1.90
2020,01,12,17,32,-1.90
2020,01,12,17,33,-1.90
2020,01,12,17,34,-1.90
2020,01,12,17,35,-1.90
2020,01,12,17,36,-1.90
2020,01,12,17,37,-1.90
2020,01,12,17,38,-1.90
2020,01,12,17,39,-1.90
2020,01,12,17,40,-1.90
2020,01,12,17,41,-1.90
2020,01,12,17,42,-1.90
2020,01,12,17,43,-1.90
2020,01,12,17,44,-1.90
2020,01,12,17,45,-1.90
2020,01,12,17,46,-2.00
2020,01,12,17,47,-2.00
2020,01,12,17,48,-1.90
2020,01,12,17,49,-2.00
2020,01,12,17,50,-2.00
2020,01,12,17,51,-2.00
2020,01,12,17,52,-2.00
2020,01,12,17,53,-2.00
2020,01,12,17,54,-2.10
2020,01,12,17,55,-2.10
2020,01,12,17,56,-2.10
2020,01,12,17,57,-2.10
2020,01,12,17,58,-2.10
2020,01,12,17,59,-2.10
2020,01,12,18,00,-2.10
2020,01,12,18,01,-2.20
2020,01,12,18,02,-2.20
2020,01,12,18,03,-2.20
2020,01,12,18,04,-2.20
2020,01,12,18,05,-2.20
2020,01,12,18,06,-2.20
2020,01,12,18,07,-2.20
2020,01,12,18,08,-2.20
2020,01,12,18,09,-2.30
2020,01,12,18,10,-2.30
2020,01,12,18,11,-2.30
2020,01,12,18,12,-2.30
2020,01,12,18,13,-2.30
2020,01,12,18,14,-2.30
2020,01,12,18,15,-2.30
2020,01,12,18,16,-2.30
2020,01,12,18,17,-2.30
2020,01,12,18,18,-2.30
2020,01,12,18,19,-2.30
2020,01,12,18,20,-2.30
2020,01,12,18,21,-2.40
2020,01,12,18,22,-2.40
2020,01,12,18,23,-2.40
2020,01,12,18,24,-2.40
2020,01,12,18,25,-2.40
2020,01,12,18,26,-2.40
2020,01,12,18,27,-2.40
2020,01,12,18,28,-2.40
2020,01,12,18,29,-2.40
2020,01,12,18,30,-2.40
2020,01,12,18,31,-2.50
2020,01,12,18,32,-2.50
2020,01,12,18,33,-2.50
2020,01,12,18,34,-2.60
2020,01,12,18,35,-2.60
2020,01,12,18,36,-2.60
2020,01,12,18,37,-2.60
2020,01,12,18,38,-2.60
2020,01,12,18,39,-2.60
2020,01,12,18,40,-2.60
2020,01,12,18,41,-2.60
2020,01,12,18,42,-2.70
2020,01,12,18,43,-2.70
2020,01,12,18,44,-2.70
2020,01,12,18,45,-2.70
2020,01,12,18,46,-2.70
2020,01,12,18,47,-2.70
2020,01,12,18,48,-2.70
2020,01,12,18,49,-2.70
2020,01,12,18,50,-2.80
2020,01,12,18,51,-2.80
2020,01,12,18,52,-2.80
2020,01,12,18,53,-2.80
2020,01,12,18,54,-2.80
2020,01,12,18,55,-2.80
2020,01,12,18,56,-2.80
2020,01,12,18,57,-2.80
2020,01,12,18,58,-2.80
2020,01,12,18,59,-2.80
2020,01,12,19,00,-2.80
2020,01,12,19,01,-2.80
2020,01,12,19,02,-2.80
2020,01,12,19,03,-2.80
2020,01,12,19,04,-2.80
2020,01,12,19,05,-2.90
2020,01,12,19,06,-2.90
2020,01,12,19,07,-2.90
2020,01,12,19,08,-2.90
2020,01,12,19,09,-2.90
2020,01,12,19,10,-2.90
2020,01,12,19,11,-2.90
2020,01,12,19,12,-3.00
2020,01,12,19,13,-3.00
2020,01,12,19,14,-3.00
2020,01,12,19,15,-3.00
2020,01,12,19,16,-3.00
2020,01,12,19,17,-3.10
2020,01,12,19,18,-3.10
2020,01,12,19,19,-3.10
2020,01,12,19,20,-3.10
2020,01,12,19,21,-3.10
2020,01,12,19,22,-3.20
2020,01,12,19,23,-3.20
2020,01,12,19,24,-3.20
2020,01,12,19,25,-3.20
2020,01,12,19,26,-3.20
2020,01,12,19,27,-3.20
2020,01,12,19,28,-3.20
2020,01,12,19,29,-3.20
2020,01,12,19,30,-3.20
2020,01,12,19,31,-3.30
2020,01,12,19,32,-3.30
2020,01,12,19,33,-3.30
2020,01,12,19,34,-3.30
2020,01,12,19,35,-3.30
2020,01,12,19,36,-3.30
2020,01,12,19,37,-3.30
2020,01,12,19,38,-3.30
2020,01,12,19,39,-3.30